When you browse on this site, cookies collect data to enhance your experience and personalize the content and advertising you see.
Visit our Privacy Policy to learn more. By continuing to use the site, you agree to this use of cookies and data.
EN

Hourly Weather Ostrovka

Today, 25 September, Friday

Time Temperature Precipitation Wind Pressure Humidity
00:00 +13°C° 0 mm 3 mps 755 mmHg 65%
01:00 +13°C° 0 mm 3 mps 755 mmHg 68%
02:00 +12°C° 0 mm 3 mps 755 mmHg 70%
03:00 +12°C° 0 mm 3 mps 756 mmHg 70%
04:00 +11°C° 0 mm 3 mps 756 mmHg 72%
05:00 +11°C° 0 mm 3 mps 756 mmHg 74%
06:00 +11°C° 0 mm 3 mps 756 mmHg 76%
07:00 +12°C° 0 mm 3 mps 756 mmHg 71%
08:00 +14°C° 0 mm 3 mps 756 mmHg 66%
09:00 +17°C° 0 mm 4 mps 756 mmHg 63%
10:00 +18°C° 0 mm 4 mps 756 mmHg 58%
11:00 +19°C° 0 mm 4 mps 756 mmHg 53%
12:00 +21°C° 0 mm 4 mps 756 mmHg 48%
13:00 +21°C° 0 mm 4 mps 756 mmHg 47%
14:00 +21°C° 0 mm 4 mps 756 mmHg 47%
15:00 +22°C° 0 mm 4 mps 756 mmHg 46%
16:00 +20°C° 0 mm 4 mps 756 mmHg 51%
17:00 +19°C° 0 mm 3 mps 755 mmHg 56%
18:00 +17°C° 0 mm 3 mps 755 mmHg 61%
19:00 +16°C° 0 mm 3 mps 755 mmHg 60%
20:00 +16°C° 0 mm 3 mps 756 mmHg 60%
21:00 +14°C° 0 mm 4 mps 756 mmHg 59%
22:00 +14°C° 0 mm 4 mps 756 mmHg 59%
23:00 +13°C° 0 mm 3 mps 756 mmHg 59%

Tomorrow, 26 September, Saturday

Time Temperature Precipitation Wind Pressure Humidity
00:00 +13°C° 0 mm 3 mps 756 mmHg 59%
01:00 +12°C° 0 mm 3 mps 756 mmHg 58%
02:00 +12°C° 0 mm 3 mps 756 mmHg 58%
03:00 +11°C° 0 mm 3 mps 756 mmHg 58%
04:00 +11°C° 0 mm 3 mps 756 mmHg 59%
05:00 +10°C° 0 mm 3 mps 756 mmHg 60%
06:00 +10°C° 0 mm 3 mps 756 mmHg 60%
07:00 +11°C° 0 mm 3 mps 756 mmHg 57%
08:00 +13°C° 0 mm 4 mps 756 mmHg 54%
09:00 +14°C° 0 mm 4 mps 756 mmHg 51%
10:00 +17°C° 0 mm 4 mps 756 mmHg 48%
11:00 +19°C° 0 mm 4 mps 756 mmHg 45%
12:00 +21°C° 0 mm 5 mps 756 mmHg 42%
13:00 +21°C° 0 mm 5 mps 756 mmHg 42%
14:00 +22°C° 0 mm 5 mps 756 mmHg 41%
15:00 +22°C° 0 mm 5 mps 756 mmHg 41%
16:00 +21°C° 0 mm 4 mps 756 mmHg 46%
17:00 +19°C° 0 mm 4 mps 756 mmHg 51%
18:00 +18°C° 0 mm 3 mps 756 mmHg 56%
19:00 +17°C° 0 mm 3 mps 756 mmHg 55%
20:00 +17°C° 0 mm 4 mps 757 mmHg 54%
21:00 +15°C° 0 mm 4 mps 757 mmHg 53%
22:00 +14°C° 0 mm 4 mps 757 mmHg 52%
23:00 +14°C° 0 mm 4 mps 757 mmHg 51%

Day after tomorrow, 27 September, Sunday

Time Temperature Precipitation Wind Pressure Humidity
00:00 +14°C° 0 mm 4 mps 758 mmHg 50%
01:00 +13°C° 0 mm 4 mps 758 mmHg 51%
02:00 +13°C° 0 mm 4 mps 758 mmHg 51%
03:00 +12°C° 0 mm 4 mps 758 mmHg 51%
04:00 +11°C° 0 mm 4 mps 758 mmHg 53%
05:00 +11°C° 0 mm 4 mps 758 mmHg 54%
06:00 +10°C° 0 mm 4 mps 759 mmHg 56%
07:00 +11°C° 0 mm 4 mps 759 mmHg 53%
08:00 +13°C° 0 mm 4 mps 759 mmHg 49%
09:00 +14°C° 0 mm 5 mps 759 mmHg 46%
10:00 +15°C° 0 mm 5 mps 759 mmHg 43%
11:00 +16°C° 0 mm 5 mps 759 mmHg 39%
12:00 +19°C° 0 mm 6 mps 759 mmHg 36%
13:00 +19°C° 0 mm 5 mps 759 mmHg 35%
14:00 +19°C° 0 mm 5 mps 759 mmHg 35%
15:00 +20°C° 0 mm 5 mps 759 mmHg 34%
16:00 +17°C° 0 mm 5 mps 759 mmHg 38%
17:00 +17°C° 0 mm 4 mps 758 mmHg 43%
18:00 +14°C° 0 mm 4 mps 758 mmHg 47%
19:00 +14°C° 0 mm 4 mps 758 mmHg 47%
20:00 +14°C° 0 mm 4 mps 759 mmHg 47%
21:00 +13°C° 0 mm 4 mps 759 mmHg 47%
22:00 +13°C° 0 mm 4 mps 759 mmHg 48%
23:00 +12°C° 0 mm 4 mps 759 mmHg 48%

28 September, Monday

Time Temperature Precipitation Wind Pressure Humidity
00:00 +12°C° 0 mm 4 mps 759 mmHg 49%
01:00 +11°C° 0 mm 4 mps 759 mmHg 49%
02:00 +11°C° 0 mm 4 mps 759 mmHg 49%
03:00 +10°C° 0 mm 4 mps 759 mmHg 50%
04:00 +9°C° 0 mm 5 mps 759 mmHg 50%
05:00 +9°C° 0 mm 5 mps 759 mmHg 49%
06:00 +9°C° 0 mm 5 mps 759 mmHg 49%
07:00 +10°C° 0 mm 5 mps 759 mmHg 47%
08:00 +11°C° 0 mm 6 mps 759 mmHg 44%
09:00 +13°C° 0 mm 6 mps 759 mmHg 42%
10:00 +14°C° 0 mm 6 mps 759 mmHg 41%
11:00 +15°C° 0 mm 6 mps 759 mmHg 40%
12:00 +16°C° 0 mm 6 mps 759 mmHg 38%
13:00 +16°C° 0 mm 5 mps 759 mmHg 40%
14:00 +15°C° 0 mm 4 mps 759 mmHg 42%
15:00 +15°C° 0 mm 4 mps 759 mmHg 43%
16:00 +15°C° 0 mm 4 mps 759 mmHg 43%
17:00 +15°C° 0 mm 4 mps 759 mmHg 42%
18:00 +15°C° 0 mm 4 mps 759 mmHg 42%
19:00 +14°C° 0 mm 4 mps 759 mmHg 41%
20:00 +14°C° 0 mm 4 mps 759 mmHg 39%
21:00 +14°C° 0 mm 4 mps 759 mmHg 38%
22:00 +14°C° 0 mm 4 mps 759 mmHg 37%
23:00 +14°C° 0 mm 4 mps 759 mmHg 36%

29 September, Tuesday

Time Temperature Precipitation Wind Pressure Humidity
00:00 +14°C° 0 mm 5 mps 758 mmHg 35%
01:00 +14°C° 0 mm 4 mps 758 mmHg 37%
02:00 +14°C° 0 mm 4 mps 758 mmHg 38%
03:00 +13°C° 0 mm 4 mps 758 mmHg 39%
04:00 +13°C° 0 mm 4 mps 758 mmHg 40%
05:00 +13°C° 0 mm 5 mps 758 mmHg 42%
06:00 +13°C° 0 mm 5 mps 758 mmHg 43%
07:00 +13°C° 0 mm 5 mps 758 mmHg 44%
08:00 +14°C° 0 mm 5 mps 758 mmHg 44%
09:00 +14°C° 0 mm 6 mps 758 mmHg 45%
10:00 +14°C° 0 mm 6 mps 758 mmHg 43%
11:00 +15°C° 0 mm 6 mps 758 mmHg 41%
12:00 +16°C° 0 mm 6 mps 758 mmHg 39%
13:00 +16°C° 0 mm 6 mps 758 mmHg 38%
14:00 +16°C° 0 mm 6 mps 757 mmHg 37%
15:00 +17°C° 0 mm 5 mps 757 mmHg 36%
16:00 +16°C° 0 mm 5 mps 757 mmHg 40%
17:00 +15°C° 0 mm 4 mps 757 mmHg 45%
18:00 +13°C° 0 mm 3 mps 757 mmHg 50%
19:00 +13°C° 0 mm 3 mps 757 mmHg 54%
20:00 +13°C° 0 mm 2 mps 757 mmHg 57%
21:00 +12°C° 0 mm 1 mps 757 mmHg 61%
22:00 +13°C° 0 mm 2 mps 757 mmHg 54%
23:00 +14°C° 0 mm 2 mps 757 mmHg 47%

30 September, Wednesday

Time Temperature Precipitation Wind Pressure Humidity
00:00 +14°C° 0 mm 3 mps 757 mmHg 39%
01:00 +14°C° 0 mm 3 mps 756 mmHg 38%
02:00 +13°C° 0 mm 4 mps 756 mmHg 36%
03:00 +13°C° 0 mm 4 mps 756 mmHg 34%
04:00 +13°C° 0 mm 4 mps 756 mmHg 35%
05:00 +13°C° 0 mm 4 mps 756 mmHg 36%
06:00 +12°C° 0 mm 4 mps 756 mmHg 38%
07:00 +13°C° 0 mm 5 mps 756 mmHg 38%
08:00 +14°C° 0 mm 5 mps 756 mmHg 38%
09:00 +15°C° 0 mm 6 mps 756 mmHg 38%
10:00 +16°C° 0 mm 6 mps 756 mmHg 36%
11:00 +17°C° 0 mm 6 mps 756 mmHg 33%
12:00 +18°C° 0 mm 7 mps 756 mmHg 31%
13:00 +19°C° 0 mm 6 mps 755 mmHg 31%
14:00 +19°C° 0 mm 6 mps 755 mmHg 31%
15:00 +20°C° 0 mm 6 mps 755 mmHg 31%
16:00 +19°C° 0 mm 5 mps 755 mmHg 33%
17:00 +17°C° 0 mm 5 mps 755 mmHg 35%
18:00 +17°C° 0 mm 4 mps 755 mmHg 38%
19:00 +16°C° 0 mm 5 mps 755 mmHg 38%
20:00 +16°C° 0 mm 5 mps 755 mmHg 39%
21:00 +15°C° 0 mm 5 mps 756 mmHg 39%
22:00 +15°C° 0 mm 5 mps 756 mmHg 40%
23:00 +15°C° 0 mm 5 mps 756 mmHg 40%
Show more